Content
SEND FEEDBACK

Daily
Averages
Monthly
Summary
United States of America

MERIZO, GUAM


Home > North America > United States > Guam
Elevation: 10 feet     Latitude: 13 14N     Longitude: 144 39E

WEATHER
 
SELECT A DAY
Number of Records: 350,245;   Date Range: 1/1/95 - 9/30/14
 
SHARE

PRINT THIS DATA

[ ← Previous Day ]
WEATHER ALMANAC - JANUARY 27, 2013
[ Next Day → ]
[ °C ]   °F
Weather ElementAverageHighLow
Temperature77.8 °F82.2 °F (1:55 pm)75.2 °F (4:40 am)
Dewpoint65.4 °F68 °F (3:12 pm)63.3 °F (8:55 am)
Humidity65.7 %73 % (3:55 am)55 % (1:55 pm)
Barometer29.89 in29.95 in (8:55 am)29.84 in (3:55 pm)
Wind Speed17.7 mph20.7 mph (2:55 pm)
Wind Gust24.2 mph (7:55 pm)
Weather ElementAverage
Visibility10 mi
Wind DirectionNE (46.2 °)

Weather ElementTotal
Precipitation---
Cooling Degree Days13.7 (Base 65)
Growing Degree Days28.7 (Base 50)
Averaged from 29 records on January 27, 2013
WEATHER CONDITIONS BREAKOUT
WIND DIRECTION BREAKOUT
WEATHER BY HOUR - JANUARY 27, 2013
[ °C ]   °F
Local TimeTemperatureDewpointHumidityBarometerVisibilityWind DirectionWind SpeedGust SpeedPrecipitationEventsConditions
1:55 AM76.1 °F65.8 °F70 %29.88 in10.0 miNE (50°)15.0 mphMostly Cloudy
2:55 AM75.6 °F65.1 °F70 %29.88 in10.0 miNE (50°)15.0 mphPartly Cloudy
3:55 AM75.6 °F66.2 °F73 %29.87 in10.0 miNE (50°)15.0 mphScattered Clouds
4:14 AM77.0 °F66.2 °F69 %29.87 in10.0 miNE (40°)16.1 mphMostly Cloudy
4:40 AM75.2 °F66.2 °F73 %29.88 in10.0 miNE (50°)16.1 mphMostly Cloudy
4:55 AM75.4 °F64.9 °F70 %29.89 in10.0 miNE (50°)16.1 mphPartly Cloudy
5:30 AM75.2 °F66.2 °F73 %29.89 in10.0 miNNE (30°)16.1 mphMostly Cloudy
5:37 AM75.2 °F66.2 °F73 %29.89 in10.0 miNE (40°)16.1 mph23.0 mphMostly Cloudy
5:55 AM75.9 °F65.3 °F70 %29.90 in10.0 miNE (40°)18.4 mphMostly Cloudy
6:55 AM75.6 °F63.5 °F66 %29.91 in10.0 miNE (40°)18.4 mphMostly Cloudy
7:55 AM77.5 °F64.2 °F63 %29.94 in10.0 miNE (50°)16.1 mphMostly Cloudy
8:55 AM79.0 °F63.3 °F59 %29.95 in10.0 miNE (50°)16.1 mphScattered Clouds
9:55 AM80.4 °F63.5 °F56 %29.94 in10.0 miNE (40°)17.3 mphPartly Cloudy
10:55 AM80.4 °F65.3 °F60 %29.93 in10.0 miNE (40°)19.6 mphMostly Cloudy
11:55 AM81.5 °F64.9 °F57 %29.91 in10.0 miNE (40°)19.6 mphPartly Cloudy
12:55 PM81.3 °F65.3 °F58 %29.89 in10.0 miNE (40°)19.6 mphPartly Cloudy
1:55 PM82.2 °F64.8 °F55 %29.86 in10.0 miNE (50°)19.6 mphPartly Cloudy
2:55 PM81.3 °F66.7 °F61 %29.85 in10.0 miNE (40°)20.7 mphScattered Clouds
3:12 PM80.6 °F68.0 °F65 %29.85 in10.0 miNE (40°)19.6 mphMostly Cloudy
3:15 PM80.6 °F66.2 °F61 %29.85 in10.0 miNE (40°)20.7 mphScattered Clouds
3:55 PM80.4 °F66.2 °F62 %29.84 in10.0 miNE (50°)18.4 mphScattered Clouds
4:55 PM78.8 °F66.0 °F65 %29.85 in10.0 miNE (50°)19.6 mphPartly Cloudy
5:55 PM77.9 °F66.2 °F67 %29.86 in10.0 miNE (50°)18.4 mphMostly Cloudy
6:55 PM76.8 °F65.3 °F67 %29.88 in10.0 miNE (50°)18.4 mphScattered Clouds
7:55 PM76.6 °F63.9 °F65 %29.89 in10.0 miENE (60°)17.3 mph24.2 mphPartly Cloudy
8:55 PM76.8 °F65.1 °F67 %29.91 in10.0 miNE (50°)18.4 mphPartly Cloudy
9:55 PM76.3 °F65.7 °F70 %29.91 in10.0 miENE (60°)18.4 mphClear
10:55 PM76.3 °F65.1 °F68 %29.91 in10.0 miNE (50°)19.6 mphPartly Cloudy
11:55 PM76.1 °F66.0 °F71 %29.89 in10.0 miNE (50°)15.0 mphPartly Cloudy
Hourly data recorded from PGUA, located miles away from Merizo, Guam







STORIES FROM OUR PARTNERS